[[{"header":{"parameterUnit":"m.s-1","parameterCategory":2,"la1":30.2991,"la2":30.254,"lo1":-89.0895,"lo2":-89.0444,"dy":0.0017,"dx":0.0017,"nx":28,"ny":28,"refTime":"2024-08-11T03:00:00:Z","depth":"0","parameterNumber":2,"parameterNumberName":"U-component_of_CURRENTS"},"data":[0,0,0,0,0,0,0,0,0,0,0,0,0,0,0,0,0,0,0,0,0,0,0,0,0,0,0,0,0,0,0,0,0,0,0,0,0,0,0,0,0,0,0,0,0,0,0,0,0,0,0,0,0,0,0,0,0,0,0.114,0.114,0,0.1117,0.1117,0.1116,0.1107,0.1107,0.1107,0.1107,0.1123,0.1123,0.1123,0,0,0,0,0,0,0,0,0,0,0,0,0,0.1162,0.1162,0.114,0.114,0.1139,0.1117,0.1117,0.1116,0.1107,0.1107,0.1107,0.1107,0.1123,0.1123,0.1123,0,0,0,0,0,0,0,0,0,0,0,0,0,0.1147,0.1162,0.114,0.1132,0.1131,0.1117,0.1117,0.1116,0.1107,0.1107,0.1107,0.1107,0.1122,0.1123,0.1123,0.1124,0,0,0.1125,0.1125,0,0,0,0,0,0,0,0,0.1148,0.1146,0.1134,0.1133,0.1132,0.1115,0.113,0.1121,0.1107,0.1116,0.1107,0.1107,0.1124,0.1124,0.1119,0.1125,0.1126,0.1125,0.1125,0.1126,0.1126,0,0,0,0,0,0,0,0.1149,0.1147,0.1131,0.1133,0.1132,0.1125,0.1123,0.1128,0.112,0.1115,0.1114,0.1112,0.1124,0.1118,0.1119,0.1126,0.1125,0.1126,0.1126,0.1126,0.1209,0.1211,0,0,0,0,0,0,0.1153,0.1148,0.1131,0.113,0.1141,0.1125,0.1123,0.112,0.1119,0.1119,0.1112,0.1112,0.1117,0.1119,0.112,0.1167,0.1126,0.1126,0.1126,0.1207,0.121,0.1212,0,0,0,0,0,0,0.1153,0.1152,0.1132,0.1139,0.1136,0.1124,0.1122,0.112,0.1115,0.1116,0.1117,0.111,0.1117,0.1119,0.1147,0.1165,0.1126,0.1127,0.1205,0.1208,0.1211,0.1231,0,0,0,0,0,0,0.1154,0.1152,0.1145,0.1139,0.1136,0.1128,0.1121,0.1119,0.1114,0.1113,0.1115,0.1116,0.1118,0.1147,0.1148,0.1165,0.1127,0.1203,0.1206,0.121,0.1228,0.1234,0.124,0,0,0,0,0,0.1155,0.1142,0.1145,0.1143,0.1129,0.1128,0.1126,0.1118,0.1114,0.1114,0.1131,0.1116,0.117,0.1148,0.1149,0.1168,0.1201,0.1205,0.121,0.1226,0.1233,0.124,0,0,0,0,0,0,0.1146,0.114,0.1143,0.1129,0.1133,0.1127,0.1118,0.1119,0.1128,0.113,0.1134,0.1137,0.1169,0.1172,0.1148,0.1207,0.1186,0.119,0.1198,0.1205,0.1211,0.121,0.1128,0,0,0,0,0,0.1143,0.1132,0.1135,0.1125,0.1127,0.1125,0.1121,0.1121,0.113,0.1132,0.1141,0.116,0.1186,0.1198,0.1215,0.1241,0.128,0.1259,0.1265,0.127,0.1274,0.1363,0.1377,0.1226,0.1226,0.1226,0,0,0.1134,0.1131,0.1123,0.1122,0.1122,0.1127,0.1123,0.112,0.1131,0.1134,0.1153,0.1174,0.1199,0.1234,0.1249,0.1239,0.1337,0.1275,0.1278,0.128,0.1369,0.1384,0.1397,0.1229,0.1228,0.1228,0,0,0.112,0.1114,0.1107,0.1111,0.1116,0.112,0.1123,0.1129,0.1137,0.1165,0.1178,0.1219,0.1243,0.1274,0.1292,0.1342,0.1363,0.1345,0.1373,0.146,0.1473,0.1485,0.1566,0.1585,0.1351,0.1351,0.1351,0,0.1109,0.1105,0.1105,0.1108,0.111,0.1121,0.1125,0.1137,0.1155,0.1181,0.1177,0.1259,0.1268,0.1333,0.1349,0.1353,0.1406,0.1338,0.1467,0.1479,0.1491,0.1572,0.1592,0.1352,0.1352,0.1352,0.1352,0,0.11,0.1097,0.1094,0.1103,0.1109,0.1111,0.1135,0.1155,0.1174,0.1201,0.127,0.1303,0.136,0.1369,0.1369,0.1457,0.1469,0.146,0.1444,0.1507,0.1589,0.161,0.1354,0.1354,0.1353,0.1353,0,0,0.107,0.1083,0.1081,0.1097,0.1106,0.112,0.1143,0.1184,0.123,0.1264,0.1338,0.1379,0.1413,0.1437,0.1456,0.152,0.1641,0.1522,0.1526,0.1594,0.1842,0.1893,0.1921,0.1657,0.1661,0.1664,0.187,0,0.1063,0.1071,0.1076,0.1095,0.1108,0.113,0.116,0.1204,0.1255,0.1334,0.1393,0.1468,0.1436,0.1484,0.1541,0.162,0.1696,0.1586,0.1778,0.1784,0.1815,0.1947,0.1981,0.2172,0.189,0.1894,0.1897,0,0.1062,0.1065,0.108,0.1117,0.1125,0.1142,0.1215,0.1244,0.1347,0.1398,0.1481,0.1537,0.1638,0.1609,0.1775,0.1709,0.1777,0.1831,0.1841,0.1894,0.1875,0.2062,0.222,0.212,0.1929,0.1926,0.1924,0,0.1071,0.1078,0.1094,0.1101,0.1138,0.1163,0.1187,0.1269,0.1332,0.1455,0.1542,0.1645,0.1736,0.1827,0.1921,0.1868,0.2116,0.2062,0.2175,0.2179,0.2249,0.2253,0.2325,0.2198,0.2197,0.2197,0.2196,0,0.108,0.11,0.1102,0.1118,0.1157,0.1175,0.1253,0.1298,0.1406,0.1512,0.1582,0.1703,0.1797,0.1938,0.1992,0.217,0.2184,0.2221,0.2255,0.2259,0.2261,0.2207,0.211,0.2204,0.2203,0.2201,0.22,0,0.1126,0.1115,0.1148,0.1166,0.1172,0.1211,0.1288,0.1361,0.1444,0.1592,0.1644,0.1795,0.198,0.2086,0.2264,0.2291,0.238,0.2484,0.248,0.2509,0.2494,0.2397,0.2411,0.2331,0.2657,0.2659,0.2662,0,0.1168,0.1181,0.1191,0.1206,0.122,0.1268,0.1313,0.1381,0.1466,0.1654,0.1741,0.195,0.2104,0.2387,0.2514,0.2681,0.2513,0.2772,0.2669,0.2542,0.2458,0.2269,0.2183,0.2777,0.2781,0.2783,0.2785,0,0.1249,0.1244,0.1263,0.1275,0.1308,0.1348,0.1411,0.1474,0.1577,0.1696,0.1861,0.1994,0.2308,0.2501,0.2726,0.2825,0.2635,0.2828,0.2715,0.2591,0.2374,0.2297,0.257,0.2808,0.2805,0.2804,0.2803,0.2802,0.1314,0.1334,0.1332,0.135,0.1376,0.1397,0.142,0.1506,0.1606,0.1753,0.1898,0.2097,0.2401,0.2741,0.283,0.2978,0.2808,0.2915,0.2823,0.2653,0.2524,0.2843,0.3093,0.3092,0.3091,0.3091,0.3091,0,0.136,0.1363,0.1399,0.139,0.1402,0.1407,0.1463,0.1481,0.1557,0.1754,0.1888,0.2237,0.2499,0.2747,0.3005,0.2954,0.2817,0.2869,0.2602,0.2527,0.2878,0.2831,0.3012,0.3012,0.3012,0.3012,0.3012,0.3012,0.1373,0.1393,0.1393,0.1393,0.1387,0.1369,0.1374,0.1414,0.1524,0.1725,0.1931,0.2122,0.2433,0.2717,0.2828,0.2821,0.2541,0.2505,0.2345,0.2588,0.2582,0.2577,0.251,0.2622,0.2621,0.1965,0.196,0.1956]},{"header":{"parameterUnit":"m.s-1","parameterCategory":2,"la1":30.2991,"la2":30.254,"lo1":-89.0895,"lo2":-89.0444,"dy":0.0017,"dx":0.0017,"nx":28,"ny":28,"refTime":"2024-08-11T03:00:00:Z","depth":"0","parameterNumber":3,"parameterNumberName":"V-component_of_CURRENTS"},"data":[0,0,0,0,0,0,0,0,0,0,0,0,0,0,0,0,0,0,0,0,0,0,0,0,0,0,0,0,0,0,0,0,0,0,0,0,0,0,0,0,0,0,0,0,0,0,0,0,0,0,0,0,0,0,0,0,0,0,-0.0477,-0.0478,0,-0.0547,-0.0548,-0.0549,-0.0618,-0.0619,-0.0619,-0.062,-0.0623,-0.0623,-0.0622,0,0,0,0,0,0,0,0,0,0,0,0,0,-0.0417,-0.0418,-0.0477,-0.0478,-0.0479,-0.0547,-0.0548,-0.0549,-0.0618,-0.0619,-0.062,-0.062,-0.0623,-0.0623,-0.0622,0,0,0,0,0,0,0,0,0,0,0,0,0,-0.0462,-0.0418,-0.0477,-0.052,-0.0524,-0.0547,-0.0548,-0.055,-0.0618,-0.0619,-0.062,-0.0621,-0.0624,-0.0623,-0.0622,-0.0595,0,0,-0.0619,-0.0619,0,0,0,0,0,0,0,0,-0.046,-0.0465,-0.0513,-0.0517,-0.0522,-0.0573,-0.0528,-0.0561,-0.0617,-0.0584,-0.062,-0.0621,-0.0598,-0.0599,-0.0614,-0.0595,-0.0595,-0.0619,-0.0619,-0.0618,-0.0618,0,0,0,0,0,0,0,-0.0456,-0.0462,-0.0507,-0.0513,-0.0519,-0.054,-0.0547,-0.0535,-0.0584,-0.0587,-0.0592,-0.0596,-0.0601,-0.0615,-0.0614,-0.0595,-0.0619,-0.0618,-0.0618,-0.0618,-0.0569,-0.0568,0,0,0,0,0,0,-0.0442,-0.0459,-0.0505,-0.0509,-0.049,-0.054,-0.0548,-0.0557,-0.0586,-0.0592,-0.0595,-0.0599,-0.0616,-0.0615,-0.0615,-0.0576,-0.0618,-0.0617,-0.0617,-0.0569,-0.0568,-0.0567,0,0,0,0,0,0,-0.044,-0.0445,-0.0502,-0.0484,-0.0492,-0.0539,-0.0549,-0.0558,-0.0572,-0.0593,-0.0598,-0.0599,-0.0617,-0.0616,-0.0605,-0.0576,-0.0617,-0.0616,-0.057,-0.0569,-0.0568,-0.0502,0,0,0,0,0,0,-0.0438,-0.0445,-0.0442,-0.0483,-0.0493,-0.0505,-0.0548,-0.0558,-0.0572,-0.0578,-0.0597,-0.0599,-0.0617,-0.0606,-0.0604,-0.0576,-0.0616,-0.0571,-0.057,-0.0568,-0.0505,-0.0499,-0.0494,0,0,0,0,0,-0.0436,-0.042,-0.0441,-0.0446,-0.0489,-0.0504,-0.0511,-0.0549,-0.057,-0.0568,-0.0587,-0.0599,-0.0595,-0.0604,-0.0602,-0.0573,-0.0572,-0.057,-0.0568,-0.0508,-0.05,-0.0494,0,0,0,0,0,0,-0.0384,-0.0426,-0.0451,-0.0447,-0.0471,-0.0515,-0.0511,-0.0539,-0.0555,-0.0557,-0.0585,-0.0587,-0.0569,-0.0579,-0.0588,-0.0557,-0.0586,-0.0584,-0.0541,-0.0533,-0.0528,-0.0489,-0.0615,0,0,0,0,0,-0.0372,-0.0375,-0.0418,-0.0412,-0.0422,-0.0466,-0.0476,-0.0502,-0.0523,-0.0533,-0.0548,-0.0559,-0.0559,-0.0554,-0.0558,-0.0531,-0.0541,-0.0513,-0.0507,-0.0502,-0.047,-0.0477,-0.0469,-0.0562,-0.0562,-0.0562,0,0,-0.0348,-0.0371,-0.0372,-0.0401,-0.0424,-0.0429,-0.0475,-0.0481,-0.0477,-0.0525,-0.0516,-0.0536,-0.0549,-0.0531,-0.0523,-0.0534,-0.0484,-0.05,-0.0495,-0.0465,-0.0474,-0.0465,-0.0457,-0.0561,-0.0561,-0.0561,0,0,-0.0302,-0.0324,-0.0317,-0.0335,-0.0363,-0.0387,-0.0385,-0.0424,-0.0434,-0.0429,-0.0465,-0.0463,-0.0467,-0.047,-0.0472,-0.0429,-0.0456,-0.0438,-0.0368,-0.0376,-0.0368,-0.0361,-0.0374,-0.0368,-0.0431,-0.0431,-0.0431,0,-0.0269,-0.028,-0.0313,-0.0313,-0.0317,-0.0365,-0.0355,-0.0366,-0.0394,-0.0378,-0.0413,-0.0409,-0.0431,-0.0394,-0.0392,-0.0411,-0.0427,-0.0395,-0.0367,-0.036,-0.0354,-0.0369,-0.0364,-0.0428,-0.0428,-0.0428,-0.0429,0,-0.0231,-0.024,-0.0231,-0.0252,-0.0253,-0.025,-0.0273,-0.0264,-0.0281,-0.0292,-0.0263,-0.0298,-0.0289,-0.0306,-0.0337,-0.0298,-0.0329,-0.0363,-0.0382,-0.034,-0.0359,-0.0355,-0.0423,-0.0424,-0.0425,-0.0426,0,0,-0.015,-0.0199,-0.0194,-0.0198,-0.0223,-0.0214,-0.0188,-0.0173,-0.0132,-0.0161,-0.0107,-0.0132,-0.0149,-0.0151,-0.019,-0.02,-0.0192,-0.0259,-0.0261,-0.0264,-0.0214,-0.0229,-0.0227,-0.023,-0.0229,-0.0228,-0.0248,0,-0.0111,-0.0111,-0.0136,-0.0111,-0.0112,-0.0128,-0.009,-0.0073,-0.0063,-0.002,-0.004,-0.0012,-0.009,-0.008,-0.0101,-0.0166,-0.0176,-0.0183,-0.0258,-0.0259,-0.0272,-0.022,-0.0141,-0.0152,-0.0245,-0.0244,-0.0243,0,-0.0061,-0.0073,-0.0058,-0.0046,-0.004,-0.0018,0.0049,0.0076,0.0125,0.0139,0.0161,0.014,0.014,0.006,-0.0011,-0.0016,-0.0096,-0.0157,-0.0161,-0.0185,-0.0265,-0.0207,-0.0141,-0.027,-0.0237,-0.0238,-0.0238,0,0.0007,-0.0003,0.0011,0.0008,0.0013,0.0051,0.0077,0.0132,0.0191,0.025,0.0303,0.028,0.0285,0.0191,0.0058,0.0025,-0.0029,-0.0094,-0.0177,-0.0181,-0.0128,-0.0129,-0.0182,-0.0128,-0.0128,-0.0128,-0.0128,0,0.0059,0.0082,0.0044,0.0053,0.0117,0.0113,0.0212,0.0244,0.0325,0.0422,0.0392,0.0457,0.0316,0.0263,0.0121,-0.0004,0.0018,-0.0135,-0.0173,-0.0106,-0.0104,-0.0228,-0.0327,-0.0129,-0.0128,-0.0128,-0.0128,0,0.0142,0.0104,0.0128,0.0129,0.0142,0.0199,0.0285,0.0372,0.043,0.0559,0.0589,0.0594,0.0529,0.0383,0.0231,0.009,-0.0095,-0.0091,-0.0005,-0.0032,-0.024,-0.0337,-0.0395,-0.0454,-0.0175,-0.0175,-0.0175,0,0.0182,0.0188,0.0188,0.0212,0.0216,0.0287,0.0357,0.0423,0.0523,0.0648,0.0728,0.0712,0.0723,0.0503,0.028,0.0068,-0.0082,-0.0032,-0.0078,-0.021,-0.0347,-0.0394,-0.0444,0.0009,0.001,0.0011,0.0012,0,0.0256,0.0249,0.0261,0.0296,0.0353,0.0438,0.0538,0.0626,0.0734,0.0831,0.0944,0.0961,0.08,0.0639,0.0353,0.019,-0.0093,-0.002,-0.0163,-0.0198,-0.0241,-0.0329,-0.0039,0.0021,0.002,0.0019,0.0019,0.0019,0.0313,0.0337,0.0336,0.0388,0.0463,0.0585,0.0667,0.0782,0.0927,0.1071,0.1084,0.1129,0.0944,0.0583,0.0342,-0.0008,-0.0056,-0.0124,-0.0229,-0.0262,-0.0317,-0.0011,0.0001,0.0,-0.0,-0.0001,-0.0002,0,0.0347,0.037,0.0426,0.0488,0.0594,0.0622,0.0787,0.0868,0.1017,0.1145,0.1218,0.1212,0.0941,0.0625,0.0192,-0.0131,-0.0247,-0.0319,-0.0357,-0.0402,-0.0116,-0.0106,-0.0107,-0.0107,-0.0106,-0.0106,-0.0106,-0.0106,0.0357,0.0399,0.0428,0.058,0.065,0.0783,0.0875,0.0985,0.109,0.1231,0.1303,0.1354,0.1215,0.0452,-0.0127,-0.0313,-0.0575,-0.0606,-0.078,-0.0586,-0.0575,-0.0565,-0.0577,-0.0676,-0.0677,-0.096,-0.0963,-0.0966]}],[{"header":{"parameterUnit":"m.s-1","parameterCategory":2,"la1":30.2991,"la2":30.254,"lo1":-89.0895,"lo2":-89.0444,"dy":0.0017,"dx":0.0017,"nx":28,"ny":28,"refTime":"2024-08-11T03:00:00:Z","depth":"2","parameterNumber":2,"parameterNumberName":"U-component_of_CURRENTS"},"data":[0,0,0,0,0,0,0,0,0,0,0,0,0,0,0,0,0,0,0,0,0,0,0,0,0,0,0,0,0,0,0,0,0,0,0,0,0,0,0,0,0,0,0,0,0,0,0,0,0,0,0,0,0,0,0,0,0,0,0.1165,0.1165,0,0.1159,0.1159,0.1159,0.1159,0.1159,0.1159,0.1159,0.1205,0.1206,0.1208,0,0,0,0,0,0,0,0,0,0,0,0,0,0.1175,0.1175,0.1165,0.1165,0.1165,0.1159,0.1159,0.1159,0.1159,0.1159,0.1159,0.1159,0.1205,0.1206,0.1208,0,0,0,0,0,0,0,0,0,0,0,0,0,0.1171,0.1175,0.1165,0.1163,0.1163,0.1159,0.1159,0.1159,0.1159,0.1159,0.1159,0.1159,0.1204,0.1206,0.1208,0.1221,0,0,0.1214,0.1215,0,0,0,0,0,0,0,0,0.1171,0.1171,0.1164,0.1163,0.1163,0.1158,0.1179,0.1182,0.1159,0.1162,0.1159,0.1159,0.1194,0.1196,0.1196,0.1223,0.1225,0.1214,0.1215,0.1216,0.1216,0,0,0,0,0,0,0,0.1171,0.1171,0.1164,0.1163,0.1163,0.1161,0.1161,0.118,0.118,0.1161,0.1161,0.1158,0.1194,0.1194,0.1198,0.1226,0.1214,0.1216,0.1217,0.1217,0.1411,0.1415,0,0,0,0,0,0,0.117,0.1171,0.1164,0.1164,0.1165,0.1161,0.1161,0.1161,0.1179,0.1181,0.1158,0.1158,0.1191,0.1195,0.1199,0.1311,0.1216,0.1218,0.1219,0.1407,0.1412,0.1417,0,0,0,0,0,0,0.117,0.1169,0.1165,0.1166,0.1165,0.1161,0.1161,0.1161,0.1164,0.1175,0.1179,0.1162,0.1191,0.1197,0.1247,0.1309,0.1219,0.122,0.1403,0.1409,0.1414,0.1474,0,0,0,0,0,0,0.117,0.117,0.1169,0.1166,0.1165,0.1174,0.1161,0.1161,0.1162,0.1162,0.118,0.1184,0.1192,0.1245,0.1249,0.131,0.1222,0.1398,0.1405,0.1413,0.1467,0.1481,0.1493,0,0,0,0,0,0.1171,0.1167,0.117,0.1168,0.1165,0.1174,0.1174,0.1171,0.1162,0.1172,0.12,0.1183,0.1297,0.1248,0.1253,0.1316,0.1394,0.1403,0.1412,0.1461,0.1478,0.1493,0,0,0,0,0,0,0.117,0.1166,0.1169,0.1164,0.1176,0.1174,0.1174,0.1173,0.1199,0.1201,0.1211,0.1219,0.1294,0.1302,0.1248,0.1403,0.1352,0.1363,0.1388,0.1404,0.1417,0.1418,0.1223,0,0,0,0,0,0.117,0.1166,0.1173,0.1171,0.1176,0.1177,0.1178,0.1181,0.1199,0.1208,0.1223,0.1268,0.1336,0.1362,0.1405,0.1469,0.1483,0.1526,0.1539,0.155,0.156,0.1626,0.1645,0.1446,0.1446,0.1446,0,0,0.1166,0.1165,0.1161,0.117,0.1175,0.1212,0.1178,0.1185,0.1238,0.1211,0.1278,0.1301,0.1363,0.145,0.1486,0.1461,0.1621,0.1561,0.1569,0.1574,0.1637,0.1656,0.1673,0.1452,0.1451,0.145,0,0,0.1174,0.1161,0.1174,0.1195,0.1208,0.1221,0.1227,0.1237,0.1262,0.1316,0.1343,0.1406,0.1464,0.1544,0.1591,0.1707,0.1684,0.1721,0.1787,0.1851,0.1866,0.188,0.1935,0.1953,0.1731,0.1731,0.1731,0,0.1172,0.1202,0.1181,0.1218,0.1248,0.1235,0.1286,0.1316,0.1346,0.1384,0.1349,0.1486,0.1527,0.1678,0.1727,0.1737,0.175,0.171,0.1863,0.1877,0.189,0.1943,0.1962,0.1735,0.1734,0.1734,0.1734,0,0.1209,0.1245,0.1255,0.1309,0.1335,0.1369,0.1414,0.1446,0.1457,0.1488,0.1592,0.1637,0.1714,0.176,0.1776,0.1917,0.1889,0.1862,0.1807,0.1913,0.1963,0.1982,0.174,0.1739,0.1738,0.1737,0,0,0.1187,0.1267,0.1276,0.1316,0.1392,0.1401,0.1509,0.1592,0.1636,0.1679,0.1752,0.1887,0.1864,0.192,0.195,0.2018,0.2133,0.1976,0.1977,0.2004,0.226,0.2103,0.2108,0.2108,0.2111,0.2114,0.226,0,0.1236,0.1312,0.1358,0.1446,0.1492,0.154,0.1628,0.1697,0.1738,0.1795,0.1876,0.194,0.1945,0.1959,0.204,0.21,0.2183,0.2096,0.2177,0.2181,0.2005,0.2125,0.1921,0.202,0.2278,0.2282,0.2284,0,0.1283,0.1322,0.141,0.1507,0.1529,0.1574,0.1673,0.175,0.1858,0.1888,0.1967,0.1992,0.2132,0.2081,0.2261,0.219,0.2242,0.2283,0.2288,0.213,0.2058,0.1959,0.2044,0.2315,0.2312,0.231,0.2308,0,0.1262,0.1371,0.143,0.1465,0.1563,0.1603,0.1655,0.176,0.1837,0.1925,0.1969,0.2092,0.2155,0.2239,0.2331,0.2291,0.2491,0.2446,0.2374,0.2363,0.2202,0.2169,0.2585,0.2585,0.2584,0.2584,0.2583,0,0.1308,0.1353,0.1401,0.1423,0.1485,0.1554,0.1631,0.17,0.1812,0.1916,0.1987,0.2084,0.2192,0.231,0.2366,0.2425,0.253,0.2411,0.2398,0.2218,0.2186,0.2441,0.2423,0.2589,0.2588,0.2587,0.2586,0,0.1298,0.134,0.1394,0.1458,0.1474,0.1502,0.1617,0.1686,0.1775,0.1912,0.1948,0.2113,0.2231,0.2335,0.2484,0.2468,0.2536,0.2539,0.2309,0.2263,0.2358,0.2342,0.2462,0.2458,0.2454,0.2451,0.2449,0,0.1308,0.1327,0.1381,0.1409,0.1433,0.1485,0.155,0.1653,0.1743,0.1943,0.2021,0.2159,0.2223,0.2353,0.235,0.2389,0.2504,0.2237,0.212,0.2374,0.2351,0.234,0.2329,0.1961,0.1954,0.1949,0.1945,0,0.1312,0.1316,0.1349,0.1405,0.1448,0.1524,0.1609,0.1664,0.1816,0.1907,0.2045,0.2083,0.2162,0.2077,0.2092,0.2096,0.2188,0.2126,0.2504,0.1983,0.1902,0.1878,0.1884,0.1899,0.1904,0.1907,0.191,0.1912,0.1297,0.1325,0.136,0.1418,0.1479,0.155,0.1591,0.1676,0.1764,0.1837,0.1922,0.1884,0.1908,0.1764,0.1759,0.1759,0.1887,0.1827,0.1844,0.1867,0.1742,0.1654,0.1585,0.1587,0.159,0.1592,0.1593,0,0.1303,0.1343,0.1388,0.1449,0.151,0.1555,0.1644,0.1644,0.1691,0.1686,0.1669,0.1469,0.1377,0.1447,0.1349,0.1336,0.1344,0.1312,0.1326,0.137,0.1409,0.1263,0.0979,0.0977,0.0976,0.0975,0,0,0.1306,0.1345,0.1374,0.1452,0.1512,0.1576,0.1611,0.1569,0.1537,0.1374,0.1281,0.1232,0.1338,0.1126,0.1107,0.104,0.12,0.0994,0.1477,0.1533,0.1571,0.1684,0.1504,0,0,0,0,0]},{"header":{"parameterUnit":"m.s-1","parameterCategory":2,"la1":30.2991,"la2":30.254,"lo1":-89.0895,"lo2":-89.0444,"dy":0.0017,"dx":0.0017,"nx":28,"ny":28,"refTime":"2024-08-11T03:00:00:Z","depth":"2","parameterNumber":3,"parameterNumberName":"V-component_of_CURRENTS"},"data":[0,0,0,0,0,0,0,0,0,0,0,0,0,0,0,0,0,0,0,0,0,0,0,0,0,0,0,0,0,0,0,0,0,0,0,0,0,0,0,0,0,0,0,0,0,0,0,0,0,0,0,0,0,0,0,0,0,0,-0.033,-0.0331,0,-0.0421,-0.0422,-0.0424,-0.0484,-0.0484,-0.0485,-0.0485,-0.0504,-0.0504,-0.0504,0,0,0,0,0,0,0,0,0,0,0,0,0,-0.0236,-0.0237,-0.033,-0.0331,-0.0332,-0.0421,-0.0422,-0.0424,-0.0484,-0.0484,-0.0485,-0.0485,-0.0504,-0.0504,-0.0505,0,0,0,0,0,0,0,0,0,0,0,0,0,-0.0299,-0.0238,-0.033,-0.0371,-0.0375,-0.0421,-0.0422,-0.0424,-0.0484,-0.0484,-0.0485,-0.0485,-0.0503,-0.0504,-0.0505,-0.0504,0,0,-0.0506,-0.0507,0,0,0,0,0,0,0,0,-0.0296,-0.0303,-0.0364,-0.0368,-0.0373,-0.0439,-0.0396,-0.0446,-0.0484,-0.0446,-0.0485,-0.0485,-0.0473,-0.0476,-0.0498,-0.0505,-0.0506,-0.0506,-0.0507,-0.0507,-0.0507,0,0,0,0,0,0,0,-0.0291,-0.03,-0.0369,-0.0365,-0.037,-0.0393,-0.0402,-0.0406,-0.0458,-0.0449,-0.0453,-0.0458,-0.0476,-0.0498,-0.0499,-0.0506,-0.0506,-0.0507,-0.0507,-0.0507,-0.0469,-0.0468,0,0,0,0,0,0,-0.0272,-0.0296,-0.0367,-0.0372,-0.033,-0.0394,-0.0405,-0.042,-0.046,-0.0466,-0.0458,-0.0461,-0.0497,-0.0498,-0.05,-0.046,-0.0507,-0.0507,-0.0508,-0.047,-0.0469,-0.0467,0,0,0,0,0,0,-0.027,-0.0278,-0.0363,-0.0333,-0.0345,-0.0395,-0.0412,-0.0422,-0.0443,-0.0467,-0.0472,-0.0469,-0.0497,-0.0499,-0.0501,-0.0462,-0.0508,-0.0508,-0.0472,-0.047,-0.0468,-0.0405,0,0,0,0,0,0,-0.0267,-0.0277,-0.0284,-0.0332,-0.0345,-0.0386,-0.0412,-0.0423,-0.0444,-0.0449,-0.0477,-0.048,-0.0497,-0.05,-0.0501,-0.0464,-0.0509,-0.0474,-0.0471,-0.0468,-0.0409,-0.0402,-0.0395,0,0,0,0,0,-0.0264,-0.0269,-0.0284,-0.0292,-0.0353,-0.0385,-0.0395,-0.0433,-0.0444,-0.0453,-0.047,-0.0479,-0.0483,-0.05,-0.0502,-0.0463,-0.0475,-0.0472,-0.0469,-0.0412,-0.0403,-0.0395,0,0,0,0,0,0,-0.0231,-0.0276,-0.0294,-0.0313,-0.0344,-0.0394,-0.0404,-0.0428,-0.0452,-0.045,-0.0475,-0.0478,-0.0462,-0.0473,-0.049,-0.0443,-0.0475,-0.0472,-0.0431,-0.0423,-0.0415,-0.0386,-0.0509,0,0,0,0,0,-0.0225,-0.024,-0.0286,-0.0298,-0.0312,-0.0357,-0.0374,-0.0398,-0.0424,-0.0436,-0.0453,-0.0457,-0.0452,-0.0447,-0.0452,-0.0432,-0.0444,-0.0404,-0.0397,-0.0391,-0.0367,-0.0363,-0.0354,-0.0457,-0.0457,-0.0457,0,0,-0.0215,-0.024,-0.0249,-0.0291,-0.0319,-0.0329,-0.0369,-0.0389,-0.0385,-0.043,-0.0426,-0.0439,-0.0443,-0.0423,-0.0414,-0.0426,-0.0371,-0.0387,-0.0382,-0.0361,-0.0359,-0.0349,-0.034,-0.0455,-0.0455,-0.0456,0,0,-0.0192,-0.0224,-0.0227,-0.0249,-0.0282,-0.0306,-0.0308,-0.0351,-0.036,-0.0363,-0.0381,-0.0371,-0.0378,-0.0366,-0.0361,-0.0314,-0.0338,-0.0311,-0.0245,-0.0242,-0.0233,-0.0226,-0.0243,-0.0237,-0.0301,-0.0301,-0.0301,0,-0.0173,-0.0188,-0.0231,-0.0236,-0.0239,-0.0289,-0.0282,-0.03,-0.0334,-0.0318,-0.0349,-0.0328,-0.0344,-0.0289,-0.0277,-0.0294,-0.0308,-0.028,-0.0233,-0.0225,-0.0219,-0.0238,-0.0233,-0.0298,-0.0298,-0.0299,-0.0299,0,-0.0156,-0.0163,-0.0164,-0.0183,-0.0194,-0.0196,-0.0221,-0.022,-0.0233,-0.0243,-0.0206,-0.0231,-0.0209,-0.0212,-0.0233,-0.0176,-0.0207,-0.0232,-0.0255,-0.0205,-0.0228,-0.0224,-0.0293,-0.0294,-0.0295,-0.0296,0,0,-0.0109,-0.0144,-0.0139,-0.0131,-0.0161,-0.0161,-0.0143,-0.0131,-0.0097,-0.0121,-0.0075,-0.0068,-0.0078,-0.0071,-0.0089,-0.0085,-0.0068,-0.0132,-0.0134,-0.015,-0.0075,-0.0125,-0.0126,-0.0089,-0.0088,-0.0086,-0.0116,0,-0.0074,-0.0062,-0.0088,-0.0058,-0.0051,-0.0072,-0.0045,-0.0035,-0.0035,-0.0009,-0.001,0.0014,-0.0024,-0.0011,-0.0008,-0.0059,-0.0051,-0.0058,-0.0119,-0.0121,-0.0173,-0.012,-0.0122,-0.015,-0.0112,-0.0112,-0.0111,0,-0.0038,-0.0033,-0.0003,0.002,0.0025,0.0041,0.0094,0.0109,0.0133,0.0136,0.0163,0.0139,0.0157,0.0103,0.0075,0.0068,0.0018,-0.0027,-0.003,-0.0089,-0.0162,-0.0191,-0.0144,-0.0104,-0.0105,-0.0105,-0.0106,0,0.0029,0.0038,0.0072,0.0073,0.0082,0.0118,0.0136,0.0166,0.0192,0.023,0.0239,0.0256,0.0245,0.0206,0.0106,0.0094,0.0049,0.0015,-0.0068,-0.0074,-0.0091,-0.01,0.0016,0.0016,0.0016,0.0016,0.0016,0,0.008,0.0111,0.0108,0.0126,0.0188,0.0184,0.0256,0.0275,0.0304,0.0335,0.0321,0.0331,0.0268,0.022,0.0143,0.0046,0.008,-0.0037,-0.0072,-0.0072,-0.0079,-0.005,-0.0057,0.0015,0.0015,0.0015,0.0016,0,0.0135,0.0133,0.0172,0.0198,0.0213,0.0261,0.0303,0.0344,0.037,0.0404,0.0414,0.0385,0.0325,0.0246,0.016,0.008,-0.0001,-0.0042,-0.0049,-0.0084,-0.0136,-0.0139,-0.0124,-0.0126,-0.0127,-0.0129,-0.013,0,0.0147,0.017,0.0216,0.0239,0.0249,0.0308,0.0341,0.0378,0.0402,0.0426,0.043,0.0395,0.0371,0.0227,0.0091,-0.0028,-0.0032,-0.0123,-0.0136,-0.0107,-0.0143,-0.0145,-0.0146,-0.0142,-0.0143,-0.0144,-0.0145,0,0.016,0.0184,0.0207,0.0258,0.0298,0.0348,0.039,0.0413,0.0446,0.0489,0.0502,0.0495,0.0355,0.0225,0.0047,-0.0042,-0.0103,-0.0147,-0.0094,-0.0112,-0.0128,-0.0163,-0.0162,-0.0152,-0.0151,-0.0151,-0.015,-0.015,0.0155,0.0178,0.0207,0.0265,0.0307,0.0356,0.0413,0.045,0.0509,0.0574,0.0535,0.0549,0.0386,0.0167,0.0004,-0.0165,-0.016,-0.022,-0.0215,-0.021,-0.0212,-0.023,-0.0275,-0.0275,-0.0275,-0.0275,-0.0275,0,0.0146,0.0178,0.0206,0.0269,0.0318,0.0361,0.042,0.0492,0.0578,0.0621,0.0668,0.0513,0.0355,0.0187,-0.0079,-0.0243,-0.0232,-0.0285,-0.0239,-0.0232,-0.0225,-0.0226,-0.0294,-0.0294,-0.0294,-0.0294,0,0,0.0142,0.0169,0.0193,0.0257,0.0318,0.0413,0.0468,0.0574,0.0631,0.0697,0.071,0.0679,0.0426,0.0237,0.0007,-0.014,-0.0137,-0.0163,-0.0137,-0.005,-0.0041,-0.0188,-0.0183,0,0,0,0,0]}],[{"header":{"parameterUnit":"m.s-1","parameterCategory":2,"la1":30.2991,"la2":30.254,"lo1":-89.0895,"lo2":-89.0444,"dy":0.0017,"dx":0.0017,"nx":28,"ny":28,"refTime":"2024-08-11T03:00:00:Z","depth":"4","parameterNumber":2,"parameterNumberName":"U-component_of_CURRENTS"},"data":[0,0,0,0,0,0,0,0,0,0,0,0,0,0,0,0,0,0,0,0,0,0,0,0,0,0,0,0,0,0,0,0,0,0,0,0,0,0,0,0,0,0,0,0,0,0,0,0,0,0,0,0,0,0,0,0,0,0,0.0672,0.0673,0,0.0698,0.0698,0.0698,0.072,0.0721,0.0721,0.0722,0.071,0.0709,0.0708,0,0,0,0,0,0,0,0,0,0,0,0,0,0.0622,0.0623,0.0672,0.0673,0.0673,0.0698,0.0698,0.0698,0.072,0.0721,0.0721,0.0722,0.071,0.0709,0.0708,0,0,0,0,0,0,0,0,0,0,0,0,0,0.0643,0.0623,0.0672,0.0689,0.0691,0.0698,0.0698,0.0698,0.072,0.0721,0.0721,0.0722,0.071,0.0709,0.0708,0.0688,0,0,0.0705,0.0704,0,0,0,0,0,0,0,0,0.0642,0.0645,0.0686,0.0688,0.069,0.0708,0.0676,0.0694,0.072,0.0707,0.0722,0.0722,0.0707,0.0706,0.0707,0.0687,0.0687,0.0705,0.0704,0.0704,0.0703,0,0,0,0,0,0,0,0.0641,0.0644,0.068,0.0686,0.0689,0.0688,0.0692,0.0679,0.07,0.0708,0.071,0.0716,0.0707,0.0708,0.0707,0.0687,0.0705,0.0704,0.0703,0.0703,0.0779,0.0782,0,0,0,0,0,0,0.0642,0.0643,0.0679,0.0681,0.067,0.0689,0.0693,0.07,0.0701,0.0703,0.0716,0.0717,0.0709,0.0708,0.0706,0.0747,0.0704,0.0703,0.0702,0.0777,0.078,0.0783,0,0,0,0,0,0,0.0641,0.0645,0.0678,0.0664,0.0669,0.0689,0.0697,0.07,0.072,0.0708,0.0709,0.0735,0.071,0.0708,0.0732,0.0744,0.0702,0.0701,0.0773,0.0778,0.0781,0.0787,0,0,0,0,0,0,0.0639,0.0645,0.0653,0.0664,0.067,0.0687,0.0697,0.07,0.0723,0.0725,0.0724,0.0723,0.071,0.0734,0.0731,0.0742,0.07,0.077,0.0775,0.078,0.0783,0.0791,0.0797,0,0,0,0,0,0.0638,0.064,0.0653,0.0658,0.0679,0.0687,0.0689,0.0705,0.0723,0.0726,0.075,0.0724,0.0765,0.0735,0.0731,0.0741,0.0768,0.0774,0.078,0.078,0.0789,0.0797,0,0,0,0,0,0,0.0624,0.0644,0.0658,0.0668,0.0681,0.0692,0.0698,0.0715,0.0736,0.0745,0.0743,0.0743,0.0765,0.077,0.0737,0.0789,0.0767,0.0773,0.077,0.0778,0.0784,0.079,0.0699,0,0,0,0,0,0.0626,0.0635,0.0653,0.0664,0.067,0.069,0.0699,0.0711,0.073,0.074,0.0749,0.0771,0.0784,0.0795,0.0797,0.082,0.0817,0.0836,0.0842,0.0847,0.0857,0.0872,0.0879,0.0803,0.0803,0.0803,0,0,0.0626,0.0638,0.0645,0.0663,0.0674,0.069,0.0697,0.0711,0.0737,0.0733,0.0773,0.0779,0.0795,0.0819,0.0832,0.0827,0.087,0.0855,0.0859,0.0865,0.0879,0.0886,0.0892,0.0807,0.0806,0.0805,0,0,0.0626,0.064,0.0648,0.0661,0.0682,0.0693,0.0704,0.0727,0.0748,0.0783,0.0795,0.0823,0.0843,0.0861,0.0872,0.0926,0.0894,0.0932,0.0973,0.0988,0.0993,0.0997,0.0993,0.0997,0.0947,0.0947,0.0947,0,0.0622,0.0644,0.0651,0.0665,0.0683,0.0701,0.0719,0.074,0.0775,0.0792,0.0802,0.0858,0.0865,0.0905,0.0935,0.0935,0.0935,0.0927,0.0991,0.0996,0.1,0.0995,0.0999,0.0948,0.0948,0.0948,0.0948,0,0.0629,0.0654,0.0659,0.0688,0.0703,0.0719,0.0749,0.0779,0.0811,0.0824,0.0869,0.0896,0.0934,0.0946,0.0957,0.1002,0.0987,0.098,0.0955,0.1007,0.1,0.1004,0.0949,0.0949,0.0949,0.0948,0,0,0.059,0.0652,0.0655,0.0683,0.0719,0.073,0.0778,0.0811,0.0844,0.0879,0.0921,0.0965,0.0976,0.0996,0.1013,0.1042,0.1072,0.1037,0.1037,0.1006,0.1092,0.1025,0.1022,0.1069,0.107,0.1071,0.1068,0,0.0593,0.0631,0.0663,0.0707,0.0728,0.0769,0.0803,0.0837,0.0876,0.0917,0.095,0.099,0.0996,0.1029,0.1053,0.107,0.1087,0.1073,0.1071,0.1071,0.0982,0.1027,0.1075,0.1071,0.1072,0.1073,0.1073,0,0.0581,0.0614,0.0657,0.0723,0.0734,0.0768,0.0831,0.0866,0.0918,0.095,0.0997,0.1017,0.1077,0.1076,0.1118,0.1108,0.1108,0.1113,0.1112,0.1051,0.1012,0.1016,0.1081,0.108,0.108,0.1079,0.1079,0,0.0539,0.0608,0.0646,0.0668,0.0737,0.0778,0.082,0.0873,0.0904,0.0986,0.1017,0.1065,0.1108,0.1125,0.1142,0.1138,0.1168,0.1156,0.1086,0.1081,0.1134,0.113,0.1176,0.1176,0.1176,0.1176,0.1176,0,0.0517,0.0549,0.0639,0.0658,0.07,0.0762,0.081,0.0865,0.0933,0.0957,0.1035,0.1068,0.1126,0.1145,0.1149,0.1128,0.117,0.1099,0.1082,0.1138,0.1134,0.1136,0.1131,0.1176,0.1176,0.1176,0.1176,0,0.0459,0.0518,0.0562,0.0651,0.0682,0.071,0.0801,0.0833,0.0916,0.0967,0.1,0.1077,0.1118,0.1146,0.1173,0.1131,0.1125,0.1101,0.1154,0.1138,0.1023,0.102,0.1029,0.1026,0.1024,0.1023,0.1021,0,0.0435,0.0454,0.0539,0.0569,0.0618,0.0679,0.0715,0.0809,0.0847,0.0955,0.0966,0.1044,0.1084,0.1064,0.1101,0.1098,0.1084,0.106,0.1055,0.103,0.1012,0.1011,0.101,0.1018,0.1018,0.1017,0.1017,0,0.0386,0.0417,0.0452,0.0512,0.0564,0.0607,0.0681,0.0695,0.0796,0.0877,0.0926,0.096,0.0995,0.102,0.1026,0.1018,0.1071,0.104,0.1044,0.1039,0.1017,0.1002,0.1003,0.101,0.1011,0.1012,0.1012,0,0.0346,0.0351,0.0407,0.0454,0.0508,0.0539,0.0578,0.0641,0.0685,0.0813,0.0816,0.0908,0.0978,0.0976,0.0976,0.0976,0.0964,0.0924,0.0934,0.0941,0.0916,0.0876,0.0817,0,0,0,0,0,0.0313,0.0325,0.0357,0.0407,0.0457,0.0494,0.0559,0.0601,0.0689,0.0702,0.0765,0.0803,0.0843,0.0879,0.0862,0.0927,0.0955,0.09,0.091,0.0973,0.0981,0.096,0,0,0,0,0,0,0.0293,0.032,0.0335,0.0366,0.0393,0.0443,0.0478,0.0537,0.0551,0.0645,0.0671,0.0749,0.0795,0.0852,0.0848,0.0858,0.0844,0.0953,0.0951,0.0969,0.0976,0.0982,0.0964,0,0,0,0,0]},{"header":{"parameterUnit":"m.s-1","parameterCategory":2,"la1":30.2991,"la2":30.254,"lo1":-89.0895,"lo2":-89.0444,"dy":0.0017,"dx":0.0017,"nx":28,"ny":28,"refTime":"2024-08-11T03:00:00:Z","depth":"4","parameterNumber":3,"parameterNumberName":"V-component_of_CURRENTS"},"data":[0,0,0,0,0,0,0,0,0,0,0,0,0,0,0,0,0,0,0,0,0,0,0,0,0,0,0,0,0,0,0,0,0,0,0,0,0,0,0,0,0,0,0,0,0,0,0,0,0,0,0,0,0,0,0,0,0,0,-0.0095,-0.0096,0,-0.0153,-0.0153,-0.0154,-0.0161,-0.0161,-0.0161,-0.016,-0.0118,-0.0117,-0.0116,0,0,0,0,0,0,0,0,0,0,0,0,0,0.0016,0.0014,-0.0095,-0.0096,-0.0097,-0.0153,-0.0153,-0.0154,-0.0161,-0.0161,-0.0161,-0.016,-0.0118,-0.0117,-0.0116,0,0,0,0,0,0,0,0,0,0,0,0,0,-0.0033,0.0014,-0.0095,-0.011,-0.0112,-0.0153,-0.0153,-0.0154,-0.0161,-0.0161,-0.016,-0.016,-0.0119,-0.0117,-0.0116,-0.0117,0,0,-0.0112,-0.0112,0,0,0,0,0,0,0,0,-0.003,-0.0037,-0.0106,-0.0109,-0.0111,-0.0152,-0.0099,-0.0138,-0.0161,-0.0139,-0.016,-0.016,-0.0122,-0.0121,-0.013,-0.0115,-0.0113,-0.0112,-0.0111,-0.0111,-0.011,0,0,0,0,0,0,0,-0.0027,-0.0034,-0.0115,-0.0108,-0.0111,-0.0111,-0.0117,-0.0106,-0.0128,-0.0141,-0.0143,-0.0154,-0.0122,-0.0131,-0.0129,-0.0112,-0.0112,-0.0111,-0.011,-0.011,-0.0087,-0.0088,0,0,0,0,0,0,-0.0027,-0.0032,-0.0113,-0.0117,-0.0072,-0.0114,-0.0121,-0.0137,-0.0131,-0.0131,-0.0154,-0.0154,-0.0134,-0.013,-0.0127,-0.0108,-0.0111,-0.011,-0.0109,-0.0087,-0.0087,-0.0088,0,0,0,0,0,0,-0.0025,-0.0034,-0.0111,-0.0077,-0.0088,-0.0117,-0.0135,-0.0138,-0.0149,-0.0142,-0.014,-0.0161,-0.0133,-0.0129,-0.0123,-0.0107,-0.0109,-0.0108,-0.0087,-0.0087,-0.0088,-0.0083,0,0,0,0,0,0,-0.0021,-0.0033,-0.0043,-0.0078,-0.009,-0.0131,-0.0135,-0.014,-0.0158,-0.0158,-0.0147,-0.0143,-0.0132,-0.0125,-0.0122,-0.0106,-0.0107,-0.0087,-0.0087,-0.0087,-0.0083,-0.0083,-0.0083,0,0,0,0,0,-0.0017,-0.0044,-0.0043,-0.0053,-0.0104,-0.0131,-0.0137,-0.0153,-0.0159,-0.0161,-0.0161,-0.0144,-0.0124,-0.0124,-0.012,-0.0103,-0.0087,-0.0087,-0.0087,-0.0083,-0.0083,-0.0083,0,0,0,0,0,0,-0.0012,-0.0048,-0.0048,-0.0087,-0.0101,-0.0133,-0.0148,-0.0156,-0.0161,-0.016,-0.015,-0.0146,-0.0131,-0.0126,-0.0126,-0.01,-0.0101,-0.01,-0.0099,-0.0099,-0.0099,-0.0109,-0.0106,0,0,0,0,0,-0.0013,-0.0037,-0.0062,-0.0092,-0.0099,-0.012,-0.0135,-0.0143,-0.0156,-0.0159,-0.0152,-0.0144,-0.013,-0.0123,-0.0111,-0.0101,-0.011,-0.0088,-0.0088,-0.0088,-0.0095,-0.0111,-0.0114,-0.0089,-0.0089,-0.0089,0,0,-0.0025,-0.0044,-0.0061,-0.0091,-0.0105,-0.0109,-0.0127,-0.0151,-0.0147,-0.0151,-0.0145,-0.0143,-0.0129,-0.0115,-0.0107,-0.0108,-0.0098,-0.0089,-0.0089,-0.0096,-0.0112,-0.0115,-0.0117,-0.0089,-0.0089,-0.0089,0,0,-0.0044,-0.0069,-0.0082,-0.0088,-0.0105,-0.0114,-0.0119,-0.0142,-0.0144,-0.0143,-0.0141,-0.0142,-0.0121,-0.0115,-0.0106,-0.0103,-0.0097,-0.0091,-0.0098,-0.0113,-0.0115,-0.0117,-0.0123,-0.0125,-0.0092,-0.0091,-0.0091,0,-0.0052,-0.0067,-0.009,-0.009,-0.0093,-0.0112,-0.011,-0.0116,-0.0133,-0.0134,-0.0137,-0.0131,-0.012,-0.0108,-0.0108,-0.0102,-0.011,-0.0095,-0.0113,-0.0116,-0.0118,-0.0123,-0.0126,-0.0091,-0.0091,-0.0091,-0.0091,0,-0.0063,-0.0069,-0.008,-0.0077,-0.0083,-0.0092,-0.0094,-0.0101,-0.0107,-0.0111,-0.011,-0.0114,-0.0113,-0.0105,-0.0104,-0.0109,-0.0109,-0.011,-0.0113,-0.012,-0.0125,-0.0128,-0.0091,-0.0091,-0.0091,-0.0091,0,0,-0.0096,-0.0087,-0.0088,-0.0074,-0.0074,-0.0082,-0.0075,-0.0077,-0.0077,-0.0088,-0.0091,-0.0086,-0.0103,-0.0097,-0.01,-0.0118,-0.0137,-0.0124,-0.0125,-0.0128,-0.0167,-0.0163,-0.0166,-0.0143,-0.0144,-0.0145,-0.0161,0,-0.0091,-0.0076,-0.0077,-0.0062,-0.0052,-0.0058,-0.0049,-0.0052,-0.0059,-0.0065,-0.008,-0.0078,-0.0092,-0.0096,-0.0118,-0.0129,-0.0148,-0.0133,-0.0161,-0.0161,-0.0156,-0.017,-0.0147,-0.0163,-0.0164,-0.0165,-0.0165,0,-0.0092,-0.0079,-0.0058,-0.004,-0.0038,-0.0034,-0.0031,-0.0025,-0.0035,-0.0042,-0.006,-0.0069,-0.009,-0.0105,-0.0143,-0.0133,-0.0155,-0.0171,-0.0171,-0.0174,-0.0163,-0.0157,-0.0171,-0.017,-0.017,-0.017,-0.0169,0,-0.0088,-0.0069,-0.0048,-0.0041,-0.0024,-0.0023,-0.0019,-0.0022,-0.0009,-0.0033,-0.0029,-0.0064,-0.0068,-0.0113,-0.0142,-0.0146,-0.0186,-0.019,-0.0207,-0.0206,-0.0207,-0.0204,-0.0228,-0.0228,-0.0228,-0.0228,-0.0228,0,-0.0079,-0.0067,-0.0045,-0.0036,-0.0015,-0.0012,0.0001,-0.0006,-0.0001,0.0023,-0.0018,-0.001,-0.0072,-0.0095,-0.014,-0.0179,-0.0183,-0.0215,-0.0215,-0.0202,-0.02,-0.0208,-0.0206,-0.0228,-0.0228,-0.0228,-0.0228,0,-0.0075,-0.0061,-0.0039,-0.0019,-0.0011,0.0001,0.0026,0.0043,0.0035,0.0062,0.006,0.0036,-0.0004,-0.0061,-0.0124,-0.0159,-0.0208,-0.0221,-0.0196,-0.0193,-0.0219,-0.0216,-0.0249,-0.0249,-0.0249,-0.0249,-0.0249,0,-0.0063,-0.0051,-0.0024,-0.0001,0.0008,0.003,0.0056,0.0058,0.0087,0.0098,0.0123,0.0087,0.0063,-0.0016,-0.0095,-0.0188,-0.0201,-0.0224,-0.024,-0.0227,-0.0224,-0.0221,-0.0218,-0.0249,-0.0249,-0.0249,-0.0249,0,-0.0034,-0.0033,-0.0009,0.0033,0.0062,0.0097,0.0131,0.0153,0.0171,0.0167,0.0183,0.0132,0.0088,-0.0,-0.0073,-0.0139,-0.0213,-0.0225,-0.0226,-0.0241,-0.0228,-0.0224,-0.0221,-0.0249,-0.0249,-0.0249,-0.0249,0,-0.0003,0.0012,0.0045,0.0076,0.0117,0.016,0.0167,0.0208,0.0229,0.024,0.0244,0.0178,0.0136,0.0026,-0.0039,-0.0111,-0.0135,-0.0156,-0.0161,-0.0162,-0.0139,-0.011,-0.0101,0,0,0,0,0,0.0038,0.0055,0.0093,0.013,0.0166,0.0182,0.0229,0.0237,0.0249,0.0274,0.0261,0.0217,0.0111,0.0059,-0.0011,-0.0055,-0.0156,-0.014,-0.0185,-0.0251,-0.0251,-0.024,0,0,0,0,0,0,0.0072,0.0106,0.0106,0.017,0.0193,0.024,0.0262,0.027,0.0283,0.0279,0.0225,0.0194,0.0088,0.0147,-0.0017,-0.0041,-0.0078,-0.0195,-0.0196,-0.0251,-0.0251,-0.0251,-0.024,0,0,0,0,0]}]]